THOR ABLESTAR DEB, 544

Orbit data source: Space-Track

THOR ABLESTAR DEB, 544 is space debris in LEO originally from a launch on Thu, 29 Jun 1961 UTC launched from the Air Force Eastern Test Range (AFETR). Debris objects in space refer to the collection of defunct objects orbiting the Earth. Examples of debris include non-operational satellites, rocket bodies, and fragments generated from explosions, collisions, or faulty payload assembly.

Loading next visibility...
THOR ABLESTAR DEB details
Identifier
544, 1961-015GD
Orbit
LEO
Last TLE update5 hours ago
Origin
Flag of USUSAF SSD (US)
ManufacturerUnknown
MissionSpacecraft
Bus & MotorUnknown
MassUnknown
Launch date (UTC)
1961-06-29 (64 years ago)
Launch vehicleUnknown
Launch site
Air Force Eastern Test Range (AFETR)
Object type
Payload
Rocket body
Debris
Shape & HBRUnknown
Radar Cross SectionSmall (<0.1 m²)

Expand to show TLE details & history

TLE from 5 hours ago
0 THOR ABLESTAR DEB
1 00544U 61015GD  25044.59100272  .00000359  00000-0  54712-3 0  9996
2 00544  66.8723 261.6997 0189322 233.4903 155.0448 13.55840497135367
Epoch: 2025-02-13T14:11Z
Definitive object data (Epoch: 2025-02-13T14:11:02.635Z)
Latitude26.91408°
Longitude-82.4684°
Altitude1,181.269 km
Speed7.203 km/s
True Right ascension18h 16m 37s
True Declination26° 46' 60"
Sunlit
Object was in daylight at TLE epoch
Visualization TLE readout
Latitude24.18613°
Longitude-84.4298°
Altitude1,177.774 km
Speed7.206 km/s
Apparent Right ascension15h 13m 24s
Apparent Declination-9° 17' 24"
Sunlit
Object is in daylight
Visualization observer readout
Local Sidereal Time22:04:38
Azimuth270.987° WNW
Elevation-15.748°
Doppler factor1
Orbital elements
Apogee altitude1,189.876 km
Perigee altitude908.642 km
Semi-major axis7,427.396 km
Eccentricity0.0189322
Inclination66.8723°
RAAN261.6997°
Arg. of periapsis233.4903°
True anomaly155.94084°
Mean anomaly155.0448°
Eccentric anomaly155.49472°
Mean motion3.39069 °/min
BSTAR0.00054712
Orbital period106.17 mins
Loading maneuver chart data...

THOR ABLESTAR DEB Visibility forecast

Observer location: undefined°, undefined

Span
Click to sort rows by Start time (UTC) header in descending order
Start Az.
Max El. time (UTC)
Max El. Az.
Max El.
End time (UTC)
End Az.
9 mins2025-02-13 23:25:47.408Z357.402° N2025-02-13 23:29:47.408Z34.248° NE19.373°2025-02-13 23:34:47.408Z83.772° E
12 mins2025-02-14 01:14:47.408Z331.57° NNW2025-02-14 01:20:47.408Z128.383° SE44.912°2025-02-14 01:26:47.408Z152.037° SSE
5 mins2025-02-14 03:06:47.408Z279.313° WNW2025-02-14 03:08:47.408Z260.031° W14.38°2025-02-14 03:11:47.408Z231.656° WSW
12 mins2025-02-14 14:55:47.408Z167.898° S2025-02-14 15:01:47.408Z99.652° ESE31.31°2025-02-14 15:07:47.408Z44.848° NE
12 mins2025-02-14 16:44:47.408Z238.315° WSW2025-02-14 16:50:47.408Z313.956° NW36.254°2025-02-14 16:56:47.408Z17.022° NNE
5 mins2025-02-14 18:39:47.408Z312.852° NW2025-02-14 18:41:47.408Z329.665° NNW12.939°2025-02-14 18:44:47.408Z354.304° N
|